SCP
0 0 0 0 0 0 0 0 0 0 0 0 0 0 0 0 0 0 0 0 0 0 0 0 0 0 0 0 0 0 0 0 0 0 0 0 0 0 0 0 0 0 0
0 0 0 0 0 0 0 0 0 0 0 0 0 0 0 0 0 0 0 0 0 0 0 0 0 0 0 0 0 0 0 0 0 0 0 0 0 0 0 0 0 0 0
0 0 0 0 0 0 0 0 0 0 0 0 0 0 0 0 0 0 0 0 0 0 0 0 0 0 0 0 0 0 0 0 0 0 0 0 0 0 0 0 0 0 1
0 0 0 0 0 0 0 0 0 0 0 0 0 0 0 0 0 0 0 0 0 0 0 0 0 0 0 0 0 0 0 0 0 0 0 0 0 0 0 0 0 0 0
0 0 0 0 0 0 0 0 0 0 0 0 0 0 0 0 0 0 0 0 0 0 0 0 0 0 0 0 0 0 0 0 0 0 0 0 0 0 0 0 0 0 0
0 0 0 0 0 0 0 0 0 0 0 0 0 0 0 0 0 0 0 0 0 0 0 0 0 0 0 0 0 0 0 0 0 0 0 0 0 0 0 0 0 0 0
0 0 0 0 0 0 0 0 0 0 0 0 0 0 0 0 0 0 0 0 0 0 0 0 0 0 0 0 0 0 0 0 0 0 0 0 0 0 0 0 0 0 0
0 0 0 0 0 0 0 0 0 0 0 0 0 0 0 0 0 0 0 0 0 0 0 0 0 0 0 0 0 0 0 0 0 0 0 0 0 0 0 0 0 0 0
0 0 0 0 0 0 0 0 0 0 0 0 0 0 0 0 0 0 0 0 0 0 0 0 0 0 0 0 0 0 0 0 0 0 0 0 0 0 0 0 0 0 0
0 0 0 0 0 0 0 0 0 0 0 0 0 0 0 0 0 0 0 0 0 0 0 0 0 0 0 0 0 0 0 0 0 0 0 0 0 0 0 0 0 0 0
0 0 0 0 0 0 0 0 0 0 0 0 0 0 0 0 0 0 0 0 0 0 0 0 0 0 0 0 0 0 0 0 0 0 0 0 0 0 0 0 0 0 0
0 0 0 0 0 0 0 0 0 0 0 0 0 0 0 0 0 0 0 0 0 0 0 0 0 0 0 0 0 0 0 0 0 0 0 0 0 0 0 0 0 0 0
0 0 0 0 0 0 0 0 0 0 0 0 0 0 0 0 0 0 0 0 0 0 0 0 0 0 0 0 0 0 0 0 0 0 0 0 0 0 0 0 0 0 0
0 0 0 0 0 0 0 0 0 0 0 0 0 0 0 0 0 0 0 0 0 0 0 0 0 0 0 0 0 0 0 0 0 0 0 0 0 0 0 0 0 0 0
0 0 0 0 0 0 0 0 0 0 0 0 0 0 0 0 0 0 0 0 0 0 0 0 0 0 0 0 0 0 0 0 0 0 0 0 0 0 0 0 0 0 0
0 0 0 0 0 0 0 0 0 0 0 0 0 0 0 0 0 0 0 0 0 0 0 0 0 0 0 0 0 0 0 0 0 0 0 0 0 0 0 0 0 0 0
0 0 0 0 0 0 0 0 0 0 0 0 0 0 0 0 0 0 0 0 0 0 0 0 0 0 0 0 0 0 0 0 0 0 0 0 0 0 0 0 0 0 0
0 0 0 0 0 0 0 0 0 0 0 0 0 0 0 0 0 0 0 0 0 0 0 0 0 0 0 0 0 0 0 0 0 0 0 0 0 0 0 0 0 0 0
0 0 0 0 0 0 0 0 0 0 0 0 0 0 0 0 0 0 0 0 0 0 0 0 0 0 0 0 0 0 0 0 0 0 0 0 0 0 0 0 0 0 0
0 0 0 0 0 0 0 0 0 0 0 0 0 0 0 0 0 0 0 0 0 0 0 0 0 0 0 0 0 0 0 0 0 0 0 0 0 0 0 0 0 0 0
0 0 0 0 0 0 0 0 0 0 0 0 0 0 0 0 0 0 0 0 0 0 0 0 0 0 0 0 0 0 0 0 0 0 0 0 0 0 0 0 0 0 0
0 0 0 0 0 0 0 0 0 0 0 0 0 0 0 0 0 0 0 0 0 0 0 0 0 0 0 0 0 0 0 0 0 0 0 0 0 0 0 0 0 0 0
0 0 0 0 0 0 0 0 0 0 0 0 0 0 0 0 0 0 0 0 0 0 0 0 0 0 0 0 0 0 0 0 0 0 0 0 0 0 0 0 0 0 0
0 0 0 0 0 0 0 0 0 0 0 0 0 0 0 0 0 0 0 0 0 0 0 0 0 0 0 0 0 0 0 0 0 0 0 0 0 0 0 0 0 0 0
0 0 0 0 0 0 0 0 0 0 0 0 0 0 0 0 0 0 0 0 0 0 0 0 0 0 0 0 0 0 0 0 0 0 0 0 0 0 0 0 0 0 0
0 0 0 0 0 0 0 0 0 0 0 0 0 0 0 0 0 0 0 0 0 0 0 0 0 0 0 0 0 0 0 0 0 0 0 0 0 0 0 0 0 0 0
Wind_Speed
1 1 1 1 2 2 2 3 3 3 3 3 3 3 3 4 4 4 4 4 5 5 4 5 5 5 4 3 4 4 4 5 6 5 4 5 6 5 5 5 5 5 4
1 1 1 1 1 2 2 2 3 3 3 3 3 4 4 4 4 5 5 5 5 5 5 5 5 4 5 4 4 5 5 5 6 6 5 5 6 5 5 5 4 4 4
1 1 1 1 2 2 2 2 2 3 3 3 4 4 4 4 5 5 5 5 5 5 5 5 6 6 6 5 5 5 4 5 5 5 5 4 4 4 5 4 5 4 4
1 1 1 2 2 2 2 2 2 3 3 3 4 4 4 4 5 5 5 5 5 5 5 5 6 6 6 6 5 5 5 5 5 4 4 4 4 4 4 4 4 4 4
1 1 2 2 2 2 2 2 2 2 3 3 4 4 4 4 4 5 5 5 5 5 5 6 6 6 7 6 5 5 5 5 5 4 4 4 4 4 4 4 4 4 5
2 2 2 2 2 2 2 2 2 2 3 3 4 4 4 3 4 6 6 5 5 6 6 5 5 6 7 8 9 9 8 7 6 5 5 5 5 5 4 4 4 4 4
2 2 2 2 2 2 2 2 2 3 3 3 4 4 4 4 5 6 7 6 6 6 6 5 4 5 6 6 7 9 9 10 9 7 7 7 6 5 5 5 5 5 6
2 2 2 2 2 2 2 2 2 2 3 3 3 4 4 4 5 6 6 5 5 6 6 6 6 6 5 6 6 6 7 7 7 7 7 7 6 6 6 6 5 6 5
2 2 2 2 2 3 3 3 3 3 3 3 3 4 4 4 5 5 6 4 4 5 5 6 6 6 7 7 6 6 6 6 7 9 9 8 8 7 5 3 4 4 4
3 3 3 3 3 3 3 3 3 3 3 3 3 4 4 5 5 5 6 4 4 4 4 5 6 7 7 7 6 6 6 5 5 5 5 5 5 6 7 5 4 4 4
2 2 3 3 3 3 3 3 3 3 3 3 3 3 4 5 5 6 6 4 4 4 4 4 4 6 7 7 7 5 6 5 5 4 3 3 3 3 3 4 4 4 4
2 2 2 2 2 2 3 3 3 3 3 3 3 3 3 4 5 5 6 6 5 4 4 4 3 4 6 6 6 6 6 5 3 3 3 3 2 2 3 3 4 4 5
2 2 2 2 2 3 3 3 3 2 2 2 3 3 3 3 3 5 6 6 6 4 3 4 4 4 5 5 5 5 4 3 3 3 3 3 2 2 2 2 2 3 3
2 2 2 2 2 2 2 2 2 2 3 2 3 3 3 3 3 3 3 3 4 4 4 4 4 4 4 4 4 3 2 2 3 3 2 2 2 2 2 2 2 2 2
2 2 2 2 2 2 2 2 3 3 3 4 3 3 3 4 3 4 3 3 2 2 2 2 2 2 2 2 2 2 2 2 2 2 2 2 2 2 2 2 2 2 3
2 2 2 2 2 2 2 2 3 4 5 6 6 5 5 5 6 6 6 5 4 4 3 2 3 3 2 2 2 2 2 2 2 2 2 2 2 2 2 2 2 2 2
3 2 2 2 2 2 2 2 2 2 4 5 5 5 5 6 6 6 5 4 4 3 3 2 2 2 2 2 2 2 2 2 2 2 2 2 2 2 2 2 2 2 2
3 3 3 2 2 2 2 2 2 3 3 2 3 4 5 5 5 5 4 3 2 2 2 3 3 2 2 2 2 2 2 1 1 1 2 2 2 2 2 2 2 2 2
3 2 2 2 2 2 2 2 2 3 3 3 3 3 3 4 4 4 3 2 2 2 2 2 2 2 2 2 2 2 2 2 1 1 2 2 2 2 2 2 2 3 3
3 3 3 2 2 2 2 2 3 2 3 3 3 3 2 2 2 2 2 2 2 2 2 2 2 2 2 2 2 2 2 2 2 2 2 2 2 2 2 3 3 2 2
2 3 3 3 3 3 2 3 3 2 2 3 3 3 3 2 2 2 2 2 2 2 2 2 2 2 2 2 2 2 2 2 2 2 2 2 2 2 2 2 2 2 2
2 2 2 2 2 2 2 3 3 3 3 3 3 2 3 2 2 2 2 2 2 2 2 2 2 2 2 2 2 2 2 2 2 2 2 2 2 2 2 2 2 1 1
2 2 2 2 2 3 3 3 3 3 3 3 3 2 2 2 2 2 2 2 2 2 2 2 2 2 2 2 2 2 3 3 2 2 2 2 2 2 2 2 2 2 2
3 3 3 3 3 3 3 3 3 3 3 3 3 2 2 2 2 2 2 2 2 2 2 2 2 3 3 2 2 2 2 2 2 3 4 3 3 2 2 2 2 2 2
3 3 3 3 3 3 3 3 2 2 2 2 2 2 2 2 2 2 2 2 3 2 3 3 2 2 3 3 3 2 2 3 3 3 3 3 3 2 2 2 2 1 1
2 2 2 2 2 3 3 2 2 2 2 2 2 2 2 2 2 2 2 2 2 2 2 2 3 3 3 3 3 3 3 3 3 3 2 2 2 2 1 1 1 1 1
Wind_Direction
273 259 236 218 206 211 215 215 219 223 223 226 231 234 233 233 231 230 231 234 235 237 236 240 244 248 249 246 247 250 250 255 266 277 283 287 285 287 293 294 293 291 288
266 253 250 232 219 219 225 227 225 227 227 228 232 235 237 235 233 235 237 237 239 241 241 245 246 247 246 249 247 250 253 255 265 275 280 286 287 287 291 294 299 297 293
248 239 244 234 227 229 235 236 237 236 235 232 232 235 239 239 237 239 239 241 242 242 243 246 250 249 248 249 250 253 258 259 259 265 275 284 290 292 295 297 299 298 297
241 229 240 238 233 237 239 237 244 246 246 244 240 241 242 242 242 241 243 245 247 247 248 248 250 250 250 252 252 252 257 261 259 261 271 278 289 292 289 293 299 302 300
251 235 249 256 250 242 238 237 243 250 256 257 253 250 247 244 243 246 246 247 248 249 248 246 246 247 250 252 255 255 254 256 257 260 266 273 278 282 282 288 289 300 297
255 251 256 259 258 248 240 238 242 249 252 253 253 257 259 257 250 250 252 250 249 250 252 251 247 239 240 244 249 257 257 256 256 254 259 264 270 274 280 278 286 292 294
256 255 256 254 256 259 251 245 249 256 258 260 261 262 265 267 261 256 253 255 253 252 253 253 249 246 245 246 248 251 253 253 252 257 257 259 263 264 267 271 273 276 281
251 251 253 254 261 267 260 255 261 263 263 266 266 266 268 270 265 259 260 253 255 254 253 251 249 250 245 248 249 252 255 255 258 257 257 257 259 260 256 262 271 281 282
248 251 255 256 261 264 260 260 260 261 265 267 265 263 265 269 265 263 263 258 254 256 254 252 249 249 246 249 251 254 258 261 257 257 260 261 261 256 256 257 255 263 280
258 260 262 259 257 259 261 265 264 261 264 268 263 262 264 269 271 269 262 250 254 259 257 251 243 247 251 250 252 253 255 261 269 263 255 253 249 238 236 240 244 250 274
270 266 264 260 258 257 259 258 254 253 259 262 266 267 266 269 272 271 267 251 250 255 257 256 250 248 252 256 258 255 257 267 265 261 262 265 260 251 249 253 253 248 256
268 261 263 266 266 257 251 251 246 247 254 259 262 270 272 270 268 270 266 256 260 255 257 257 256 257 261 265 263 257 258 267 260 251 250 255 262 266 269 270 271 268 264
267 265 269 270 263 254 248 246 246 246 251 258 259 265 274 275 268 262 264 259 260 257 257 262 265 267 270 265 257 257 254 251 247 245 248 260 272 276 277 280 290 291 290
267 274 270 263 263 258 252 248 246 248 251 253 262 268 274 276 274 272 266 257 252 253 252 251 250 251 254 262 262 252 249 252 253 252 254 268 276 272 267 267 273 286 292
260 264 266 264 265 266 261 257 255 254 257 262 263 269 270 273 282 287 281 264 255 254 255 249 252 254 255 256 258 261 253 248 253 253 246 258 265 267 268 271 271 277 280
251 261 262 262 264 265 270 273 256 256 269 267 269 270 275 277 285 285 281 271 263 254 252 256 255 252 255 259 262 266 254 249 252 248 249 253 255 262 272 277 272 271 277
245 255 262 261 261 263 268 275 286 275 259 263 270 275 275 284 285 286 285 277 262 247 245 251 256 255 256 260 260 260 259 259 256 243 247 252 255 257 259 262 270 279 287
249 251 253 253 254 253 258 268 276 284 293 290 276 278 287 286 286 286 281 276 263 248 250 248 252 254 257 259 258 259 261 256 249 244 245 249 253 257 258 262 262 270 280
248 246 247 252 253 253 254 261 265 270 278 288 296 293 294 288 287 291 277 262 266 265 259 252 251 251 252 253 252 248 244 241 240 244 245 248 251 255 262 266 268 267 273
242 242 250 250 251 253 252 256 261 265 275 281 287 297 304 291 284 291 278 265 263 268 264 258 255 254 251 246 243 240 237 233 227 236 245 249 253 253 259 263 264 261 268
241 238 241 246 247 250 253 257 261 265 273 280 282 293 304 290 286 287 285 276 270 271 269 262 256 254 250 240 231 229 237 239 233 238 247 251 253 257 262 262 259 260 262
235 237 236 242 249 248 252 256 259 263 271 275 283 291 298 288 288 288 287 281 275 273 274 267 259 255 250 241 234 230 232 239 239 239 247 251 252 255 257 257 261 266 261
229 234 239 241 246 253 257 254 256 262 267 271 278 283 284 283 285 287 289 290 286 282 280 272 265 261 257 251 238 231 232 235 239 239 240 243 244 245 250 255 261 264 265
227 231 237 241 243 247 251 254 257 262 267 273 277 277 279 281 284 289 293 297 295 288 285 277 268 264 262 262 253 242 238 242 243 234 230 229 234 239 245 248 257 260 264
223 231 236 238 242 248 253 258 260 264 268 272 279 284 285 286 289 293 298 300 297 291 291 286 275 264 252 253 258 259 251 248 247 242 225 219 221 232 240 250 256 264 274
224 228 232 237 242 247 252 256 258 263 268 276 283 287 289 289 291 295 296 299 300 293 293 289 281 275 265 254 250 251 246 239 236 242 230 213 212 221 232 243 255 266 273